Regional Weather Roundup
Issued by NWS Raleigh/Durham, NC

Home | Current Version | Previous Version | Text Only | Print | Product List | Glossary On
Versions: 1 2 3 4 5 6 7 8 9 10 11 12 13 14 15 16 17 18 19 20 21 22 23 24 25 26 27 28 29 30 31 32 33 34 35 36 37 38 39 40 41 42 43 44 45 46 47 48 49 50
000
ASUS42 KRAH 301110
RWRRAH
NORTH CAROLINA WEATHER ROUNDUP
NATIONAL WEATHER SERVICE RALEIGH NC
600 AM EST FRI JAN 30 2015

NOTE: "FAIR" INDICATES FEW OR NO CLOUDS BELOW 12,000 FEET WITH NO
SIGNIFICANT WEATHER AND/OR OBSTRUCTIONS TO VISIBILITY.

NCZ001-053-055-056-065-067-301200-
WESTERN NORTH CAROLINA

CITY           SKY/WX    TMP DP  RH WIND       PRES   REMARKS
ASHEVILLE      MOCLDY    33  25  72 N18G30    30.10R WCI  22
JEFFERSON      CLOUDY    28  20  71 NW29G41   29.98R WCI  13
MORGANTON      CLOUDY    40  25  55 NW9G22    30.13R WCI  34
HICKORY        CLOUDY    39  25  57 NW8       30.06R WCI  33
RUTHERFORDTON  MOCLDY    38  28  68 CALM      30.09R
MOUNT AIRY     CLOUDY    40  25  54 NW13G21   30.05R WCI  33
BOONE          CLOUDY    29  23  78 NW22G44   30.00R WCI  15
$$

NCZ021-022-025-041-071-084-088-301200-
CENTRAL NORTH CAROLINA

CITY           SKY/WX    TMP DP  RH WIND       PRES   REMARKS
CHARLOTTE      CLEAR     43  27  53 NW14G21   30.04R
GREENSBORO     MOCLDY    41  27  57 NW16G23   30.01R
WINSTON-SALEM  CLOUDY    41  24  51 NW16G23   30.04R
RALEIGH-DURHAM CLOUDY    40  27  59 W3        29.98R
FORT BRAGG     CLOUDY    45  33  64 W12       29.98S
FAYETTEVILLE   CLOUDY    47  35  63 W9        29.98R
BURLINGTON     CLEAR     41  27  57 NW12G21   29.99R
LAURINBURG     CLOUDY    44  36  73 NW6       30.01R
$$

NCZ011-015-027-028-043-044-047-080-103-301200-
NORTHEASTERN NORTH CAROLINA

CITY           SKY/WX    TMP DP  RH WIND       PRES   REMARKS
ROCKY MT-WILSO CLOUDY    44  32  62 W6        29.97R
GREENVILLE     DRIZZLE   45  39  81 W7        29.99R
WASHINGTON     LGT RAIN  45  39  79 W6        29.96R
ELIZABETH CITY LGT RAIN  45  36  70 W9        29.93S
MANTEO         CLOUDY    46  39  76 SW5       29.93S
CAPE HATTERAS  CLOUDY    50  45  83 W13       29.95S
$$

NCZ078-087-090-091-093-098-101-301200-
SOUTHEASTERN NORTH CAROLINA

CITY           SKY/WX    TMP DP  RH WIND       PRES   REMARKS
LUMBERTON      CLOUDY    48  39  71 W8        29.98R
GOLDSBORO      MIX PCPN  44  43  98 CALM      29.96R
KENANSVILLE    LGT RAIN  45  40  82 W3        29.98R
NEW BERN       CLOUDY    51  40  65 W5        29.97S
CHERRY POINT   CLOUDY    50  41  71 W9        29.96F
BEAUFORT       CLOUDY    51  47  86 W10       29.96S
JACKSONVILLE   CLOUDY    48  42  80 W6        29.96S
WILMINGTON     LGT RAIN  50  44  80 SW7       29.97F
$$



USA.gov is the U.S. government's official web portal to all federal, state and local government web resources and services.